Regional Weather Roundup
Issued by NWS

Home | Current Version | Previous Version | Text Only | Print | Product List | Glossary On
Versions: 1 2 3 4 5 6 7 8 9 10 11 12 13 14 15 16 17 18 19 20 21 22 23 24 25 26 27 28 29 30 31 32 33 34 35 36 37 38 39 40 41 42 43 44 45 46 47 48 49 50
000
ASUS43 KLOT 210410
RWRIL

ILLINOIS REGIONAL WEATHER ROUNDUP
NATIONAL WEATHER SERVICE CHICAGO/ROMEOVILLE IL
1000 PM CST SAT DEC 20 2014

NOTE: "FAIR" INDICATES FEW OR NO CLOUDS BELOW 12,000 FEET WITH NO
SIGNIFICANT WEATHER AND/OR OBSTRUCTIONS TO VISIBILITY.

* THESE STATIONS ARE NOT UNDER NWS QUALITY CONTROL. THEY ALSO MAY NOT
  REPORT WEATHER SUCH AS PRECIPITATION OR FOG.

ILZ001-002-007-009-015-016-024-210500-
NORTHWEST ILLINOIS

CITY           SKY/WX    TMP DP  RH WIND       PRES   REMARKS
MOLINE         CLOUDY    33  29  85 S8        30.20S FOG     WCI  26
STERLING*      CLOUDY    32  27  80 S3        30.22S
SAVANNA*       CLOUDY    33  29  85 S5        30.21S WCI  28
$$

ILZ003-004-008-010-011-017-018-210500-
NORTH CENTRAL ILLINOIS

CITY           SKY/WX    TMP DP  RH WIND       PRES   REMARKS
ROCKFORD       CLOUDY    31  26  82 S7        30.24F WCI  24
FREEPORT*      CLOUDY    31  28  88 SE6       30.22F WCI  25
ROCHELLE*      CLOUDY    31  28  92 S9        30.23F WCI  22
DE KALB*       CLOUDY    29  27  90 S8        30.23F WCI  21
PERU*          CLOUDY    33  30  89 SE7       30.24S WCI  27
$$

ILZ005-006-012>014-019>023-210500-
NORTHEAST ILLINOIS

CITY           SKY/WX    TMP DP  RH WIND       PRES   REMARKS
CHICAGO-OHARE  CLOUDY    32  26  78 S7        30.24F WCI  26
CHICAGO-MIDWAY CLOUDY    34  27  75 S6        30.26F WCI  29
AURORA         CLOUDY    32  26  78 S6        30.24F HAZE    WCI  26
LANSING*       CLOUDY    32  27  83 S5        30.27S WCI  27
JOLIET*        CLOUDY    32  27  82 S3        30.26S
WAUKEGAN       CLOUDY    31  25  78 S5        30.24S WCI  26
DUPAGE AIRPORT CLOUDY    32  26  78 S7        30.24S WCI  26
KANKAKEE*      CLOUDY    32  28  86 SE3       30.27S
WHEELING       CLOUDY    32  26  78 S9        30.26F WCI  24
MORRIS*        CLOUDY    32  30  92 S5        30.25S WCI  27
ROMEOVILLE*    CLOUDY    32  27  83 S7        30.25F WCI  26
NORTHERLY ISL    N/A     33  26  76 S7          N/A  WCI  27
$$

LMZ740>746-210500-
SOUTHERN LAKE MICHIGAN

STATION/POSITION SKY/WX   TEMP    WIND        PRES    VSBY  WAVE
                          AIR SEA DIR/SP/G                  HT/PER
                          (F)     (DEG/KT/KT) (MB)    (MI)  (FT/S)
WAUKEGAN HARBOR            33     200/  5/  8   N/A
HARRISON CRIB              33     190/ 10/ 12   N/A
BURNHAM HARBOR             33     180/  7/ 10   N/A
CALUMET HARBOR             33     170/  6/  8 1023.5S
$$

ILZ025>027-034>036-040-047-049-050-058-095>099-210500-
WEST-CENTRAL ILLINOIS

CITY           SKY/WX    TMP DP  RH WIND       PRES   REMARKS
QUINCY         CLOUDY    38  33  82 S10       30.20S WCI  31
GALESBURG*     CLOUDY    33  31  92 SE3       30.20F
MACOMB*        CLOUDY    34  33  96 SE5       30.22F FOG     WCI  30
JACKSONVILLE*  CLOUDY    39  34  82 S6        30.23S WCI  35
PITTSFIELD*    CLOUDY    37  34  89 S5        30.23S WCI  33
$$

ILZ028>032-037-038-041>044-048-051>054-059>061-210500-
CENTRAL ILLINOIS

CITY           SKY/WX    TMP DP  RH WIND       PRES   REMARKS
PONTIAC        CLOUDY    33  30  89 S8        30.26S WCI  26
BLOOMINGTON    CLOUDY    32  29  89 S8        30.25S WCI  25
DECATUR        CLOUDY    33  28  81 S6        30.26F WCI  28
PEORIA         CLOUDY    36  28  73 S8        30.24S WCI  30
LACON*         CLOUDY    32  28  85 S5        30.23F WCI  28
LINCOLN*       CLOUDY    35  31  87 S5        30.26S WCI  31
SPRINGFIELD    CLOUDY    38  31  76 SE12      30.24F WCI  30
TAYLORVILLE    CLOUDY    34  30  86 SE8       30.25F WCI  27
$$

ILZ033-039-045-046-055>057-062-063-210500-
EAST-CENTRAL ILLINOIS

CITY           SKY/WX    TMP DP  RH WIND       PRES   REMARKS
CHAMPAIGN      CLOUDY    32  27  81 SE8       30.27R WCI  25
DANVILLE*      CLEAR     30  26  84 SE5       30.25S WCI  25
RANTOUL*       MOCLDY    31  28  88 SE6       30.26F WCI  25
MATTOON        CLOUDY    31  26  82 S8        30.27S WCI  23
PARIS*         CLEAR     28  26  96 CALM      30.30R
$$

ILZ079-100>102-210500-
SOUTHWEST ILLINOIS

CITY           SKY/WX    TMP DP  RH WIND       PRES   REMARKS
ALTON          CLOUDY    38  32  78 SE6       30.25S WCI  34
BELLEVILLE     CLOUDY    38  34  83 SE3       30.25F
CAHOKIA*       CLOUDY    40  34  79 SE7       30.25S
SPARTA*        CLOUDY    38  32  79 SE6       30.27S WCI  33
$$

ILZ064>066-069>071-074>076-080>082-084>086-088>090-092>094-210500-
SOUTH-CENTRAL ILLINOIS

CITY           SKY/WX    TMP DP  RH WIND       PRES   REMARKS
CARBONDALE     CLOUDY    36  29  75 CALM      30.28F
CAIRO*         CLEAR     33  32  97 CALM      30.28S
EFFINGHAM*     CLOUDY    32  27  82 E3        30.30S
MARION         CLOUDY    36  30  80 CALM      30.29S
MT. VERNON     CLOUDY    36  27  69 E5        30.29S WCI  32
CENTRALIA*     CLOUDY    36  28  74 SE3       30.27F
SALEM*         CLOUDY    38  30  72 SE5       30.27F WCI  34
METROPOLIS*    CLEAR     29  29 100 CALM      30.28S
$$

ILZ067-068-072-073-078-083-087-091-210500-
SOUTHEAST ILLINOIS

CITY           SKY/WX    TMP DP  RH WIND       PRES   REMARKS
LAWRENCEVILLE  CLEAR     26  24  92 CALM      30.31S FOG
FLORA*         CLEAR     33  29  84 SE3       30.30S
FAIRFIELD*     CLOUDY    33  28  83 CALM      30.28F
HARRISBURG*    MOCLDY    33  29  85 E3        30.31S
ROBINSON*      CLEAR     25  24  99 CALM      30.32R FOG
CARMI*         CLEAR     27  27 100 CALM      30.30S FOG
$$

ABBREVIATIONS USED IN REMARKS
   TC - TEMPERATURE IN CELSIUS
  WCI - WIND CHILL INDEX
   HX - HEAT INDEX
  VSB - VISIBILITY
$$



USA.gov is the U.S. government's official web portal to all federal, state and local government web resources and services.